Location: Vihti�l�
(61.3833°N, 23.0667°E)
Time: 03:48:33
(UTC+00:00)

CZ-4B R/B - Pass Details

Date: 29 November 2020
Orbit: 497 x 645 km, 97.8° (Epoch: 19 January)

Event Time Altitude Azimuth Distance (km) Brightness Sun altitude
Rises 04:24:16 0° 15° (NNE) 2,629 7.3 -17.9°
Reaches altitude 10° 04:26:25 10° 9° (N) 1,729 6.3 -17.6°
Maximum altitude 04:29:59 47° 296° (WNW) 673 3.8 -17.2°
Enters shadow 04:31:28 29° 239° (WSW) 947 4.6 -17.0°
